FENGYUN 1C DEB

Satellite information

Favourite Embed

Satellite Type and Status

DEBRISIN ORBIT

Key statistics

Satellite FENGYUN 1C DEB at a glance.

Uptime

9555

Days in orbit

Revolutions

≈ 14.4

Per day

Orbit

SSO

Sun Synchronous Orbit

Inclination

98.9

Latest

Satellite identification and parameters

Extended collection of information and parameters for FENGYUN 1C DEB.

Object identification

Identified? True

Debris? True

Object name: FENGYUN 1C DEB

International designator: 1999-025BQW

Object number (NORAD): 31342

Object ID (CCSDS): 31342

Country: PEOPLES REPUBLIC OF CHINA (PRC)

Current information (Y/N): Y

RCS size: SMALL

Orbital parameters

Period: 100.24 minutes

Inclination: 98.9103 deg

SMA: 7148.027 km

Apoapsis: 850.006 km

Periapsis: 689.778 km

RAAN: 137.6208 deg

Eccentricy: 0.0112079

Argument of periapsis: 329.9404 deg

Mean anomaly: 29.5378 deg

Mean motion: 14.36559051 rev/day

Mean motion (dot): 0.00000274 rev/day2

B* drag term: 0.00010303 1/REarth

Two-line elements (TLE)

Creation date: July 6, 2025, 6:05 p.m.

Reference frame: TEME

Reference center: EARTH

Epoch: July 6, 2025, 2:48 a.m. UTC

TLE line 0: 0 FENGYUN 1C DEB

TLE line 1: 1 31342U 99025BQW 25187.11675335 .00000274 00000-0 10303-3 0 9995

TLE line 2: 2 31342 98.9103 137.6208 0112079 329.9404 29.5378 14.36559051955993

Live tracking on map

Real-time ground track for satellite FENGYUN 1C DEB.

In-orbit conjunctions

A list of the most updated potential collisions computed for object FENGYUN 1C DEB.

Target Orbit TCA Probability of collision Miss distance Type
CZ-6A DEB LEO 2025-01-24 12:54:57 0.0001659837 219.0 (m) DEBRIS
IRIDIUM 911 LEO 2025-01-05 14:32:23 0.00394561 132.0 (m) PAYLOAD

Associated space launch

Chinese polar orbiting meteorological satellite

FENGYUN 1C DEB was lifted into orbit during the mission ‘Long March 4B | Feng Yun 1C’, on board a Long March 4B space rocket.

The launch took place on May 10, 1999, 1:33 a.m. from Launch Complex 7.

For more information about the launch, click the button.

Launch to space Long March 4B | Feng Yun 1C
Long March 4B | Feng Yun 1C

Agency: N/A

Status: Launch Successful

Launch date: May 10, 1999, 1:33 a.m. UTC

Rocket: Long March 4B

Launch pad: Launch Complex 7

Location: Taiyuan Satellite Launch Center, People's Republic of China

...

Latest news about this satellite

There are no fresh news available about this satellite. Check back as we update our databases every day.


Newsletter sign-up

Weekly statistics, charts and insights to help you stay on top of the space industry.